Location: Unspecified
(0.0000°N, 0.0000°E)
Time: 19:07:53
(UTC+00:00)

STARLINK-34687 - Visible Passes

Search period start: 10 November 2025 00:00
Search period end: 20 November 2025 00:00
Orbit: 446 x 448 km, 53.2° (Epoch: 08 November)

Date Brightness Start Highest point End Pass type
(mag) Time Alt. Az. Time Alt. Az. Time Alt. Az.
14 Nov 4.2 19:00:03 10° NNW 19:02:15 31° N 19:02:15 31° N visible
15 Nov 4.2 18:21:18 10° N 18:24:15 25° NE 18:27:12 10° ESE visible
15 Nov 6.6 20:00:21 10° WSW 20:01:17 11° SW 20:02:12 10° SW visible
16 Nov 6.1 19:19:27 10° WNW 19:21:57 18° SW 19:24:28 10° S visible
17 Nov 5.2 18:39:24 10° WNW 18:42:33 31° SW 18:45:43 10° S visible
